GFSNE_850_spd_000.txt.gz
Wind_Speed
9 9 10 10 11 12 13 13 14 17 16 13 15 13 12 14 15 16 15 17 20 20 19 19 19 19 20 21 22 25 29 33 36 40 39 40 40 39
9 10 11 11 12 12 12 14 14 18 22 17 16 16 16 17 16 19 17 20 21 23 21 21 22 22 23 23 24 26 28 31 36 38 43 42 43 43
11 12 11 12 11 11 12 13 15 15 20 22 19 18 17 19 19 19 20 20 20 22 27 27 24 26 27 27 26 28 30 32 34 39 41 46 45 45
12 12 10 10 11 12 13 13 15 15 19 22 23 21 20 19 19 21 22 22 22 23 29 28 27 29 28 28 29 29 29 31 35 39 42 44 48 47
13 13 13 13 14 13 15 15 16 17 20 21 22 19 22 21 21 24 21 25 22 22 26 27 32 32 31 32 33 39 36 32 33 38 42 46 48 50
15 15 15 15 15 14 16 16 16 18 21 21 22 22 22 24 24 24 25 25 27 26 28 31 32 31 32 29 37 37 37 41 37 34 41 45 48 51
16 16 16 16 17 17 18 19 22 21 22 23 25 25 27 24 25 26 27 27 28 27 30 30 32 31 31 33 35 37 42 46 47 43 38 42 47 49
16 17 18 20 25 23 22 24 25 25 27 25 26 29 28 25 24 25 27 28 32 26 31 34 31 35 35 35 40 47 52 53 49 45 43 41 43 48
19 20 22 24 24 26 26 24 24 26 27 29 24 23 25 23 25 28 26 28 32 32 33 37 30 37 37 42 47 51 54 55 50 43 42 45 44 45
23 23 25 23 24 27 24 22 23 24 20 23 22 22 22 26 30 31 30 31 33 29 27 37 33 38 44 46 54 55 49 44 42 41 41 44 47 47
26 29 36 36 23 26 23 24 22 22 19 22 26 25 26 28 29 28 23 24 27 29 27 32 36 42 48 60 56 47 37 34 33 38 40 43 44 45
28 30 29 19 22 22 22 22 17 17 16 19 21 19 22 21 23 24 23 24 27 33 30 32 38 42 48 53 49 46 38 31 33 28 36 40 43 43
26 19 15 16 18 20 22 22 18 20 21 20 18 20 20 19 19 19 21 22 27 32 31 31 40 45 44 47 54 48 34 29 26 32 30 40 44 45
18 10 17 19 19 20 21 21 20 20 16 17 18 20 20 20 20 21 26 26 27 31 31 31 38 41 46 51 49 45 31 30 30 22 27 34 42 45
11 16 19 20 21 20 20 18 17 13 15 16 18 19 18 20 23 23 24 28 26 24 24 28 33 41 43 47 44 36 33 31 27 19 27 25 39 46
16 18 18 17 17 16 18 12 9 11 13 16 16 17 18 19 21 22 24 23 23 24 25 26 31 40 41 33 26 28 26 26 27 16 24 29 30 39
13 9 9 9 10 9 9 9 10 11 12 13 16 17 18 18 19 20 20 21 22 25 31 28 37 37 37 27 22 25 23 20 17 17 24 27 28 32
12 8 10 10 9 9 11 11 11 12 11 13 14 16 16 17 19 19 18 19 22 24 32 32 33 40 43 36 21 31 27 22 12 14 12 24 29 32
7 8 8 9 8 10 10 10 10 11 14 11 14 14 14 15 17 18 19 19 22 22 30 28 31 37 35 36 33 29 30 26 15 12 13 11 20 29
6 7 8 9 9 9 9 9 11 10 11 12 12 12 12 13 15 17 18 19 21 23 29 28 29 25 31 30 30 29 21 20 13 13 7 12 14 16
7 6 7 8 8 8 9 9 10 9 10 9 9 10 10 12 14 16 17 20 20 19 23 26 23 24 25 31 35 31 21 14 18 9 7 13 13 17
6 6 7 8 8 8 8 8 8 8 7 7 8 9 10 11 13 15 16 18 18 18 22 23 23 20 28 34 34 35 32 16 19 26 15 7 10 10
7 7 8 8 7 7 7 7 6 6 6 7 7 9 10 11 13 14 15 16 17 18 20 17 17 15 21 25 32 34 41 35 34 29 27 15 11 15

GFSNE_850_spd_003.txt.gz
Wind_Speed
9 10 9 7 7 8 8 10 10 13 13 12 11 10 11 11 11 15 17 16 20 21 20 21 21 22 22 22 23 23 26 27 27 29 32 33 37 38
9 10 12 9 8 10 10 10 9 12 15 13 13 13 13 14 16 20 17 20 21 21 24 23 22 20 23 25 25 26 27 28 30 31 32 34 36 39
10 13 13 13 9 9 9 9 10 12 16 18 16 15 16 18 18 18 18 19 22 22 22 27 31 29 28 28 28 29 28 28 28 31 35 37 37 39
14 14 13 11 14 10 9 12 13 16 16 20 20 17 17 19 19 22 22 20 21 21 26 31 27 27 29 31 31 30 29 28 30 30 30 36 40 41
13 14 13 14 15 15 15 15 14 15 15 19 18 19 20 21 20 22 24 24 24 26 26 25 26 29 34 36 35 31 29 32 32 30 32 32 36 42
14 15 15 17 18 18 17 18 19 18 15 19 19 20 20 24 21 23 23 24 25 24 24 28 30 32 32 34 35 32 33 34 34 34 37 41 39 38
16 15 15 16 18 17 18 21 24 22 22 22 24 23 24 22 23 26 26 25 25 23 27 28 28 31 35 33 34 34 33 34 36 44 49 48 47 44
18 17 19 22 23 24 25 25 27 27 30 28 26 25 27 26 24 25 22 25 29 22 27 31 28 34 36 35 34 35 37 37 43 52 56 57 51 48
21 22 19 18 22 23 27 29 27 21 26 26 28 27 25 23 23 26 24 27 29 27 28 35 28 32 33 35 36 38 42 47 54 57 55 50 50 52
21 19 19 20 22 26 29 30 26 24 25 25 25 25 22 23 26 29 32 31 28 25 23 33 30 34 33 35 39 43 50 48 54 46 40 40 44 48
21 21 22 24 29 31 30 24 24 24 19 23 25 26 29 27 23 21 19 22 26 25 23 28 30 35 39 42 47 44 48 53 53 45 40 41 41 44
24 27 25 28 29 26 22 24 21 19 19 20 22 22 24 23 22 22 23 23 25 28 24 28 33 36 41 43 39 52 54 55 47 38 32 33 35 37
19 25 24 29 22 21 21 23 24 24 25 24 21 19 20 21 19 19 20 23 26 29 28 30 32 33 36 41 49 56 53 49 42 32 28 26 32 33
22 19 21 23 20 22 23 24 24 23 23 18 17 19 20 20 20 20 25 27 25 28 30 26 31 36 38 46 51 54 44 38 34 29 28 29 30 33
24 25 23 20 21 23 23 20 17 18 14 14 17 18 19 20 23 21 21 23 24 24 21 22 28 34 33 42 47 45 38 44 30 25 32 32 32 31
24 21 22 22 22 18 17 15 14 8 12 15 16 16 18 18 19 19 21 21 21 21 23 22 30 25 31 39 37 40 32 39 36 30 23 15 23 26
14 11 14 10 11 13 13 13 12 12 13 14 15 16 17 17 18 18 19 19 21 22 24 21 32 28 26 34 36 36 29 42 38 31 18 17 18 23
15 12 13 13 14 14 13 13 13 13 14 14 15 14 15 16 17 17 17 18 20 21 23 22 29 35 34 34 35 34 36 35 36 30 16 16 17 21
11 10 12 12 12 12 12 13 13 12 16 15 13 15 14 14 15 16 17 18 19 20 20 26 25 25 30 32 35 36 36 33 32 29 20 13 18 17
10 10 10 10 11 11 11 11 12 12 12 12 12 12 12 13 14 15 16 18 20 20 19 24 24 20 23 28 30 38 32 27 26 27 26 16 15 17
10 9 9 9 10 11 11 11 11 11 12 12 9 10 11 12 13 15 16 18 20 19 20 25 23 20 23 22 28 40 39 23 18 23 24 14 12 13
10 10 10 9 9 10 10 10 10 10 9 9 9 9 10 11 13 14 15 17 18 18 18 19 20 17 19 21 24 34 41 39 18 18 17 17 11 9
11 11 10 9 8 9 9 9 9 8 8 8 8 9 10 11 12 13 15 16 17 17 18 23 18 19 20 17 23 27 34 40 43 32 18 21 20 13

GFSNE_850_spd_006.txt.gz
Wind_Speed
11 8 7 12 9 9 8 9 11 8 10 10 9 9 6 10 11 17 19 22 25 23 23 20 20 21 23 24 24 24 25 26 26 26 27 27 27 29
10 9 11 10 10 9 10 8 10 9 10 11 9 8 10 16 18 18 18 24 24 22 24 24 22 24 25 25 27 27 27 27 29 30 30 29 30 31
10 17 15 14 15 13 9 9 9 10 13 15 17 16 17 20 18 18 19 19 22 23 23 25 27 29 30 26 24 26 27 28 28 29 31 31 30 29
13 13 14 16 12 11 10 8 12 15 17 20 16 14 17 17 19 17 20 23 21 22 22 26 29 32 27 26 27 29 28 28 28 27 25 29 29 29
16 14 13 12 16 15 14 14 15 15 16 17 20 21 22 20 22 21 18 24 25 27 26 22 27 28 24 30 33 32 30 30 30 30 28 26 27 27
21 19 16 17 18 20 19 20 19 20 21 21 22 21 19 21 25 28 22 19 27 25 24 26 28 30 32 30 30 29 30 36 34 31 29 29 32 36
19 17 18 19 20 21 20 18 20 22 26 26 28 26 25 24 24 28 34 34 33 26 24 25 29 30 32 33 35 37 40 33 29 32 35 39 40 42
22 19 20 18 22 18 22 20 21 25 26 29 27 27 26 27 29 29 26 26 28 26 26 30 35 38 42 41 33 28 31 32 36 34 38 43 46 50
23 22 21 21 19 21 23 19 22 28 31 26 24 26 26 28 27 25 26 28 32 35 32 30 26 27 29 32 30 26 28 32 41 46 49 51 54 57
24 22 20 20 21 24 23 23 28 31 25 23 24 25 24 25 26 27 31 31 28 25 20 29 31 30 29 26 26 32 39 42 41 45 47 49 55 61
27 24 23 24 25 23 24 27 29 24 21 23 23 24 23 24 25 24 23 23 26 23 21 28 28 28 36 43 42 32 36 37 43 45 44 45 45 46
24 22 23 23 25 25 25 27 25 20 23 22 23 24 25 27 19 20 24 28 26 26 20 27 33 39 42 36 33 41 39 43 46 45 40 40 32 34
17 21 23 22 23 24 22 21 20 22 24 26 27 25 19 18 20 16 16 14 20 28 33 34 31 32 35 39 43 45 41 47 48 42 38 39 33 30
18 16 16 16 20 21 21 20 22 26 26 23 19 14 16 16 17 21 24 27 29 28 29 26 30 28 32 40 47 45 43 44 41 35 39 46 38 32
19 26 23 22 23 20 20 22 22 20 20 15 10 15 17 20 22 23 20 22 24 26 23 22 25 33 29 38 41 38 41 40 37 40 47 44 39 32
22 20 21 22 20 20 17 14 16 17 14 10 17 16 15 18 19 18 20 23 24 21 21 21 23 31 30 36 33 35 38 39 42 42 44 43 31 28
14 12 11 12 12 13 15 15 14 11 11 11 16 17 18 17 17 17 19 18 21 23 23 21 23 27 29 24 30 31 39 41 44 43 40 41 29 23
9 11 12 12 15 13 12 12 11 10 9 14 15 18 17 16 16 17 16 17 20 21 22 21 27 31 26 27 24 30 36 41 41 41 36 34 35 19
14 14 8 12 11 11 10 11 12 13 15 17 16 13 14 14 14 15 16 17 19 22 22 20 26 29 28 31 32 28 33 42 40 38 35 38 38 25
10 9 9 8 8 10 11 11 11 12 12 13 13 14 9 13 13 14 16 18 20 23 24 15 26 25 25 24 28 31 31 37 37 33 36 40 30 18
9 7 9 9 8 9 11 12 13 14 13 13 10 6 10 11 13 13 16 17 19 21 20 20 26 20 24 23 24 30 33 35 35 32 31 32 32 16
9 9 9 9 11 12 13 13 12 9 9 8 9 10 10 11 12 14 16 18 20 20 19 23 21 22 22 23 23 26 32 39 39 30 21 15 24 21
7 10 10 9 10 12 12 12 8 7 7 8 8 8 10 10 11 14 13 17 18 19 20 23 15 20 18 24 24 22 29 38 44 39 29 12 16 14

GFSNE_850_spd_009.txt.gz
Wind_Speed
11 14 19 14 14 10 9 12 9 8 7 5 5 5 8 9 11 13 14 19 24 23 24 20 16 16 18 18 18 19 20 22 23 24 24 24 24 24
11 11 16 16 17 11 9 10 9 10 12 8 9 10 9 12 16 20 20 20 22 21 20 20 20 21 22 22 20 21 21 19 20 23 25 27 27 27
15 14 14 16 19 16 13 10 10 12 14 11 11 14 17 16 17 15 17 20 22 21 20 18 21 24 26 26 26 23 22 22 23 22 22 24 26 27
19 16 19 18 17 15 18 18 14 11 13 15 17 19 17 16 20 19 18 20 22 23 23 21 24 23 25 26 26 27 28 29 26 26 24 24 24 24
20 20 17 17 20 18 17 17 17 15 16 19 22 20 24 24 19 21 22 21 25 21 16 23 27 26 27 28 27 25 26 27 27 28 30 32 27 26
24 23 20 18 17 19 19 17 16 17 20 22 20 24 24 24 25 21 21 22 26 27 31 28 26 26 28 25 23 25 27 30 31 32 37 33 29 29
25 25 23 21 20 20 20 19 20 19 22 22 25 26 29 29 26 24 25 29 31 28 29 28 26 28 30 31 33 34 37 38 35 29 26 30 34 35
21 23 24 25 24 21 20 19 20 21 23 22 24 28 26 22 22 23 27 29 29 29 31 34 32 31 26 24 23 23 23 21 24 29 30 30 32 38
23 24 27 27 24 22 22 21 19 17 19 22 27 24 23 21 23 24 25 25 28 30 29 29 23 23 23 24 23 23 22 23 26 30 37 40 44 45
24 27 25 25 24 23 20 20 22 23 23 26 21 20 20 22 23 23 26 27 27 23 21 27 25 27 26 26 28 32 36 36 32 31 31 33 39 42
29 30 28 24 21 20 22 23 24 26 24 20 19 21 22 23 23 23 25 26 26 27 24 26 25 27 34 41 37 22 25 28 31 32 34 41 43 44
28 31 29 28 24 23 21 21 25 24 20 18 19 22 23 24 22 19 21 26 26 29 24 23 30 32 34 30 29 29 32 34 35 34 39 42 43 43
21 20 22 22 23 21 20 19 21 19 17 21 25 25 22 13 14 17 14 17 18 22 23 23 27 30 29 35 36 33 34 37 38 40 43 43 40 40
19 17 16 15 17 16 17 18 17 16 19 20 21 16 7 11 13 16 20 23 22 24 27 28 29 24 28 32 38 35 35 34 34 38 42 44 46 43
18 18 19 18 18 17 16 14 13 11 16 19 11 7 11 15 20 22 24 24 24 25 19 15 17 21 25 29 38 39 34 37 35 40 44 47 47 42
18 18 20 17 12 9 9 6 9 13 14 15 13 11 14 19 21 22 20 22 20 16 13 14 16 20 26 29 32 32 31 34 38 41 47 49 46 40
15 16 12 7 5 6 8 9 10 11 12 10 11 14 19 20 22 18 16 16 17 20 20 18 17 20 26 34 36 30 31 35 40 44 50 50 47 41
7 8 8 7 6 10 7 8 9 10 12 14 14 16 20 20 16 13 15 15 18 19 21 24 25 23 30 31 27 29 32 35 40 45 49 47 51 45
8 8 9 6 9 8 6 7 7 8 8 11 16 21 21 17 11 14 15 15 18 19 20 26 16 24 28 32 33 28 30 34 39 47 45 43 47 47
11 10 9 7 9 12 12 12 15 16 17 19 20 20 14 7 11 14 13 17 18 20 23 23 18 25 25 27 30 32 24 29 36 43 44 42 40 35
7 7 8 12 14 14 15 16 16 17 18 17 6 4 5 9 13 13 12 15 17 20 25 18 25 25 23 23 30 31 29 27 32 34 37 35 35 37
7 4 10 15 13 13 13 15 17 16 13 7 6 8 9 10 12 10 14 14 17 21 23 22 25 20 19 22 28 28 31 36 37 32 30 20 24 24
8 9 10 12 12 14 15 14 13 10 6 6 8 11 13 10 7 12 14 12 17 18 20 26 23 18 15 19 25 25 30 35 43 39 34 20 13 13

GFSNE_850_spd_015.txt.gz
Wind_Speed
16 16 17 16 15 15 14 13 12 10 10 6 6 5 5 6 6 10 12 12 14 15 15 14 14 12 12 13 14 14 14 15 15 15 13 12 14 16
15 16 17 16 16 16 14 14 13 12 12 8 9 9 9 8 11 13 14 14 13 12 14 16 16 17 18 17 16 17 18 19 18 16 15 17 17 16
17 17 15 15 16 20 18 16 14 15 16 16 16 15 14 13 13 15 15 19 20 18 17 18 19 20 22 22 20 20 21 22 21 21 21 20 20 19
20 19 19 17 15 17 18 21 18 17 17 18 15 16 17 18 16 18 20 19 23 23 22 22 21 21 20 22 24 26 28 25 25 25 24 24 23 24
22 21 19 19 16 17 17 21 22 22 21 21 20 19 19 18 18 20 23 27 27 23 21 21 23 26 25 25 25 26 27 26 23 22 25 27 27 27
25 25 23 21 19 18 17 18 21 23 21 20 23 21 20 20 19 23 28 27 22 17 19 22 24 22 22 23 24 26 27 29 29 28 29 30 33 34
29 27 26 24 22 21 19 19 17 20 22 22 23 23 25 22 22 24 26 22 22 20 21 20 20 23 22 22 22 20 21 21 21 23 24 27 28 28
33 28 27 26 25 23 22 21 18 20 21 22 23 23 24 21 22 25 22 21 24 23 21 23 22 23 21 22 22 21 20 20 22 25 27 27 27 28
34 29 23 27 24 23 23 21 22 20 21 21 22 23 22 21 25 25 22 22 24 24 25 25 24 22 22 24 23 24 24 26 29 27 20 20 22 28
33 27 25 23 24 23 22 22 21 21 20 21 22 24 25 23 25 23 24 25 25 23 23 27 24 26 23 24 27 28 27 21 20 21 22 21 22 23
22 21 22 23 21 21 21 20 20 19 18 20 22 22 22 23 22 23 25 26 27 24 22 25 20 25 29 32 28 19 17 20 19 20 21 24 25 25
20 20 20 21 19 21 20 20 21 19 20 21 22 20 20 19 22 25 23 21 18 16 17 21 24 26 27 28 23 22 21 20 20 22 24 25 24 29
21 19 18 19 21 21 17 17 18 18 19 17 17 15 16 20 19 14 12 13 17 19 20 21 25 25 22 25 27 25 24 22 26 30 29 26 27 29
18 15 17 20 20 17 16 16 17 16 15 14 12 11 15 12 11 11 12 16 20 22 21 21 22 19 21 25 27 25 23 27 29 27 26 27 30 34
18 19 19 18 17 15 12 12 14 14 13 10 10 11 12 10 12 12 15 19 23 20 16 14 17 17 20 24 28 26 31 28 28 31 31 32 34 36
23 20 19 17 16 14 12 12 13 11 10 9 9 11 12 13 14 15 18 21 18 16 12 12 13 18 23 22 21 25 25 28 34 35 36 36 39 42
23 21 18 16 14 13 13 12 11 12 11 11 12 13 15 17 14 16 18 17 17 17 16 11 13 18 19 21 23 27 24 28 34 38 38 42 43 47
22 21 19 16 14 14 13 12 12 12 11 14 15 14 16 14 15 16 16 15 16 16 17 16 19 18 19 23 23 23 24 29 35 37 38 44 50 51
19 17 15 15 16 15 13 12 11 8 10 11 11 12 14 16 19 16 12 14 15 15 15 16 17 19 25 29 28 23 25 31 36 37 39 45 50 52
17 16 15 16 16 12 12 13 11 9 8 9 11 13 16 17 12 10 12 13 13 16 15 14 16 20 24 27 26 25 24 32 33 37 41 47 49 51
18 15 15 17 16 13 13 14 12 9 8 11 12 13 13 11 10 11 11 11 14 15 17 19 17 19 21 23 24 26 29 29 28 32 42 45 44 51
14 15 18 18 14 14 16 15 11 10 10 9 9 10 11 11 10 11 12 13 14 14 17 17 16 17 21 24 23 25 32 34 28 27 35 39 38 41
16 15 15 16 16 13 16 14 13 13 11 10 10 10 11 10 9 11 13 13 14 14 15 17 17 16 21 24 23 27 30 33 33 34 35 43 43 42

GFSNE_850_spd_021.txt.gz
Wind_Speed
12 12 13 14 12 11 11 9 7 6 6 6 3 4 4 3 6 6 6 7 9 10 10 10 10 11 12 14 15 15 15 15 15 15 15 16 17 17
15 15 14 14 14 14 13 12 13 10 8 6 4 6 7 7 7 6 7 7 8 10 12 14 16 16 15 14 15 16 19 21 21 21 20 19 18 20
19 18 16 16 16 15 14 14 14 13 10 9 9 9 11 12 13 11 11 13 12 12 14 19 19 18 18 17 17 18 18 20 22 24 25 25 27 24
22 21 20 21 20 18 16 15 15 15 13 13 10 13 12 12 12 13 14 14 15 17 20 20 15 16 16 17 18 20 21 22 23 25 27 26 25 24
24 22 22 23 23 22 19 17 15 15 15 16 13 14 15 15 15 15 14 16 19 20 20 17 15 16 18 20 21 21 22 21 22 24 25 25 26 25
28 28 27 23 23 24 23 20 16 16 16 17 15 14 15 13 15 15 14 16 18 18 18 16 17 17 17 17 20 21 21 21 20 19 19 20 21 22
31 32 30 25 24 24 25 24 21 18 17 15 14 13 13 13 15 14 18 14 16 19 21 18 14 14 15 18 21 19 19 18 17 18 19 20 22 24
35 34 32 29 27 26 27 27 25 23 20 17 15 15 16 17 16 17 15 16 18 20 19 13 16 17 17 17 19 19 20 20 18 20 22 25 27 28
38 36 33 31 29 29 26 27 26 25 23 21 21 20 16 16 17 18 18 19 17 16 22 16 15 18 17 16 19 18 19 23 25 24 24 24 22 22
40 38 34 32 29 31 29 28 28 26 24 22 22 19 18 18 17 18 19 21 22 21 19 16 15 15 13 14 20 21 21 20 20 19 18 19 21 22
42 43 36 33 29 29 30 27 27 24 21 20 21 19 18 18 17 18 17 16 14 14 15 12 11 12 15 17 14 16 18 15 14 16 17 19 22 26
46 43 36 35 26 25 31 29 28 23 22 19 18 16 17 17 18 15 14 12 13 11 10 9 12 14 13 13 11 15 14 16 14 12 16 19 20 22
46 42 38 33 26 28 27 29 26 20 19 19 18 17 17 17 15 14 14 9 8 9 12 12 12 15 15 17 15 15 14 14 14 15 19 20 21 23
45 37 33 27 30 28 26 27 22 19 20 19 17 17 16 14 13 12 10 10 11 12 16 17 14 13 15 17 17 15 16 17 16 17 18 19 23 25
36 32 27 29 29 25 25 23 21 19 21 20 19 17 15 14 12 11 10 11 13 14 17 17 15 14 15 16 18 18 20 19 18 17 17 19 22 23
28 22 23 26 29 25 24 25 23 22 21 21 18 18 16 13 12 12 11 11 13 11 14 15 14 16 16 16 17 19 18 21 20 19 19 23 24 23
18 16 15 22 24 23 25 25 25 21 21 21 19 18 16 13 13 13 12 13 13 11 11 10 13 14 17 17 16 16 18 19 18 19 21 26 25 23
20 16 22 30 28 27 28 28 25 22 22 20 19 18 17 14 12 14 13 14 12 10 10 10 11 12 12 16 15 14 16 19 19 20 22 26 29 26
7 25 42 38 35 33 29 27 24 23 22 20 19 17 15 13 15 12 11 12 10 9 9 10 11 10 13 15 13 17 19 18 20 22 24 26 31 31
33 45 40 39 36 31 29 26 25 25 23 21 18 17 15 13 14 12 9 10 8 8 10 11 11 10 11 15 19 17 20 23 20 24 26 26 28 31
40 48 43 41 34 29 28 27 27 25 24 22 19 16 12 13 12 11 9 12 9 8 10 12 11 11 12 14 13 18 17 20 25 25 25 26 27 30
44 42 38 33 30 29 28 29 26 25 25 24 20 14 13 12 9 11 11 9 8 8 12 13 11 9 9 11 15 17 18 21 20 23 25 24 22 28
43 38 33 30 29 27 30 28 26 25 27 23 18 15 14 12 12 13 13 9 8 10 11 12 10 9 9 10 14 16 19 21 22 23 19 23 27 29

GFSNE_850_spd_024.txt.gz
Wind_Speed
15 14 13 11 11 10 10 8 8 6 7 8 7 8 8 7 9 10 10 11 10 10 10 10 10 12 14 16 16 16 16 17 18 18 18 17 16 17
19 19 17 15 14 12 11 10 9 9 7 8 8 8 9 8 8 8 7 10 9 10 10 11 13 16 18 19 19 18 18 19 20 21 23 22 22 21
24 23 22 19 14 13 12 12 11 11 10 8 9 10 12 10 10 10 10 9 10 13 12 13 16 18 16 16 17 18 20 21 22 23 23 24 25 25
29 27 24 20 21 20 16 15 14 14 11 12 10 11 11 11 12 12 10 11 12 14 17 17 17 16 13 13 15 17 19 21 22 22 22 24 26 27
30 29 25 24 24 20 19 16 14 14 15 12 11 10 11 11 11 12 13 11 12 15 17 16 16 17 16 16 17 19 20 21 21 21 22 23 24 26
33 31 27 28 24 23 24 21 18 17 15 14 13 11 12 11 11 12 13 12 12 13 14 15 19 22 19 18 18 19 21 21 22 20 19 18 20 22
36 35 33 32 27 24 22 21 23 22 17 16 15 14 13 12 13 12 14 13 14 16 12 13 12 14 16 19 20 20 19 21 21 21 22 22 21 22
41 38 35 34 31 28 27 26 25 24 22 20 18 16 14 13 13 14 13 13 13 12 13 12 14 17 19 17 21 22 25 27 23 21 22 24 26 27
47 41 34 31 33 31 30 29 28 26 26 21 21 17 16 15 13 13 13 12 12 13 15 16 15 19 19 17 21 24 21 21 25 27 26 24 24 26
43 39 36 31 34 31 31 32 31 29 28 31 26 21 20 16 17 14 14 14 13 14 13 13 13 15 15 14 19 24 25 20 21 24 24 23 22 23
38 36 35 36 37 33 31 29 28 30 26 26 28 26 24 20 17 12 11 10 11 10 10 11 10 12 15 15 13 19 20 18 19 20 20 21 20 22
43 46 47 43 38 36 31 29 28 27 22 22 27 27 26 21 20 18 13 13 12 12 12 11 10 11 13 12 9 15 15 16 21 21 20 20 22 22
44 38 38 43 42 37 30 29 30 26 22 21 20 23 23 22 20 18 16 11 10 10 13 11 11 11 13 16 15 14 15 15 17 19 21 22 23 25
44 42 43 44 37 34 32 31 28 25 20 19 19 18 17 16 13 14 15 11 10 14 16 17 11 11 12 14 15 13 14 17 18 20 20 21 24 23
43 40 44 39 28 30 30 29 28 26 24 21 24 21 17 16 17 14 14 13 14 16 15 17 12 11 11 13 15 14 17 18 18 18 22 22 21 22
43 42 39 30 30 31 29 32 25 29 23 22 24 21 18 19 17 13 10 8 10 11 15 18 13 13 11 11 13 15 16 18 19 20 22 23 23 23
57 47 38 35 35 33 31 26 24 27 29 30 24 22 21 18 15 15 12 12 14 13 13 12 13 13 11 13 12 13 14 16 19 21 23 25 24 24
52 47 40 39 38 33 27 22 26 31 36 30 28 25 22 18 17 15 13 14 15 14 13 11 10 9 12 14 15 14 15 16 20 22 23 25 28 25
56 51 46 40 39 28 31 37 40 37 30 29 25 24 21 18 19 16 15 14 15 14 13 11 9 8 11 12 9 13 16 17 20 22 23 25 28 28
60 53 45 40 32 35 37 34 31 29 30 26 25 23 21 20 18 17 16 16 14 14 13 11 10 9 11 12 14 13 13 17 20 24 26 26 26 28
55 48 34 34 36 38 39 36 30 28 27 26 24 22 21 19 17 17 15 16 16 14 14 12 10 15 13 11 11 11 12 18 21 26 25 27 27 27
49 40 34 33 34 39 36 31 31 30 29 27 24 22 20 18 18 17 16 16 14 15 14 12 12 9 8 10 13 13 13 14 20 22 25 24 24 29
34 29 30 34 35 38 37 33 28 28 28 25 23 22 20 19 16 16 15 16 15 14 13 13 12 10 9 10 12 12 13 15 19 21 21 24 28 31

GFSNE_850_spd_027.txt.gz
Wind_Speed
13 14 15 9 8 8 7 6 6 7 8 9 6 10 7 8 10 10 10 10 10 9 9 8 9 10 13 16 17 17 16 16 16 17 17 19 19 19
16 17 16 11 12 10 9 8 8 7 8 2 4 7 8 7 11 9 8 13 13 10 9 9 10 12 14 16 17 18 19 18 18 19 19 20 21 21
21 21 22 17 14 13 11 11 11 9 8 8 7 10 13 13 8 11 11 12 12 15 13 12 14 15 16 15 14 14 15 17 19 20 22 22 22 23
25 24 24 22 22 20 16 16 13 12 11 12 10 11 14 13 13 14 13 13 14 15 13 18 19 17 16 15 14 14 16 17 18 19 21 21 22 24
29 27 28 27 26 22 24 17 16 16 14 14 11 11 13 12 14 11 15 15 16 17 19 15 16 19 19 19 17 16 18 19 20 21 20 20 21 22
38 34 30 30 29 27 25 24 21 17 16 16 13 13 14 14 13 12 17 17 15 13 12 12 21 20 15 16 16 17 14 17 17 19 22 21 20 21
40 38 31 31 30 27 25 24 22 25 19 17 15 15 14 16 17 15 13 13 13 10 14 16 15 18 18 20 16 13 17 19 21 25 28 23 20 20
40 36 34 29 32 31 28 26 25 25 23 20 20 18 18 15 14 15 15 14 14 13 12 12 12 15 16 17 14 17 17 19 26 27 25 24 24 24
41 38 37 32 36 38 34 31 31 30 28 26 26 23 18 16 17 20 15 17 14 11 14 11 12 14 11 17 18 21 25 28 28 26 25 24 23 22
42 44 43 42 40 39 34 35 36 36 34 32 30 28 30 24 19 18 18 18 17 16 13 13 10 13 11 11 19 22 23 25 24 20 18 19 20 20
48 46 45 45 46 45 41 37 36 38 36 34 33 32 29 27 23 20 14 12 12 13 14 13 10 10 10 13 16 20 18 21 20 20 16 18 18 18
54 51 50 49 46 48 44 42 39 38 34 33 32 31 33 31 25 25 17 17 17 15 14 13 12 11 12 14 12 14 16 16 19 18 18 18 18 18
52 52 53 55 54 51 50 47 46 39 34 32 27 26 30 31 27 27 25 24 16 15 17 15 11 11 13 15 15 15 14 13 14 17 19 17 15 20
51 51 45 49 50 54 51 48 42 38 32 30 28 23 24 23 19 22 25 26 18 19 21 19 16 11 12 14 15 13 13 14 14 17 16 15 17 17
59 44 44 46 46 48 47 49 43 39 32 31 33 27 26 23 14 20 24 21 22 22 21 21 17 14 12 14 14 14 14 14 14 16 18 17 16 14
56 54 41 42 48 47 46 44 45 41 36 35 34 32 27 24 21 31 30 20 17 16 14 14 14 14 13 11 13 14 13 15 13 15 18 19 19 15
47 51 47 46 50 51 44 40 46 38 38 32 31 28 26 29 26 28 20 18 15 15 14 16 14 14 14 13 12 13 12 13 13 16 20 19 20 16
37 53 61 65 61 53 50 50 53 46 43 40 31 29 33 34 28 23 23 20 19 16 14 13 12 10 12 16 15 13 12 13 15 17 18 19 20 19
53 53 62 59 62 63 59 61 60 51 40 37 36 35 35 30 26 25 24 20 19 16 14 14 15 15 14 15 10 10 12 13 14 16 17 19 22 22
56 56 60 65 65 66 66 62 55 37 37 35 38 39 37 30 29 27 23 21 18 16 15 15 15 15 14 13 14 13 16 13 11 16 19 23 23 23
52 54 62 67 68 64 66 65 44 37 29 41 41 35 31 31 28 24 21 21 20 17 16 15 15 17 13 13 15 13 9 12 17 18 19 19 24 24
25 41 37 56 79 78 71 56 40 38 41 42 38 35 33 31 27 25 20 20 20 18 16 14 16 16 14 15 15 14 13 11 17 18 19 19 20 24
6 7 7 10 13 28 40 33 37 39 42 40 35 34 32 30 26 22 20 20 18 15 16 16 16 15 13 15 16 15 14 13 13 15 16 20 23 23

GFSNE_850_spd_030.txt.gz
Wind_Speed
14 15 17 15 11 10 10 9 8 6 13 12 11 12 10 11 12 14 15 14 10 9 8 7 7 8 10 12 14 15 14 14 14 14 15 16 16 16
19 18 18 18 16 14 13 11 11 10 7 5 7 10 12 9 13 12 12 10 10 11 9 9 9 10 12 14 15 15 14 14 14 15 16 18 20 21
25 22 21 19 19 17 16 16 14 12 12 8 7 10 12 13 13 12 13 13 15 10 11 11 12 14 16 17 16 14 14 15 15 16 18 19 20 21
30 30 28 25 22 22 20 18 17 16 15 13 12 11 14 13 12 16 18 14 15 17 15 15 14 15 13 16 17 14 14 15 16 16 17 20 21 23
34 33 31 31 28 25 27 25 22 20 21 22 19 17 18 16 14 12 12 12 8 20 21 18 17 16 17 14 13 9 10 10 11 14 15 18 20 22
36 35 35 33 31 28 28 31 28 25 22 24 20 21 17 18 19 17 13 12 12 13 17 15 15 14 16 16 15 12 12 13 14 16 18 22 22 19
38 38 38 38 36 33 31 31 31 31 27 25 24 22 21 21 24 22 19 12 12 12 16 17 15 17 17 17 19 18 16 15 16 20 23 24 21 20
41 41 41 41 41 38 35 31 31 33 34 33 28 25 21 22 24 22 17 12 14 14 16 17 21 15 16 16 13 12 11 12 16 20 23 23 22 23
43 43 43 46 46 45 41 36 33 35 34 31 32 30 28 24 24 22 21 22 22 17 15 19 18 18 17 15 17 16 17 19 20 23 23 17 16 17
47 46 46 46 47 47 45 43 42 41 39 38 35 31 30 28 28 29 29 26 24 21 19 23 17 13 13 18 18 17 16 19 20 20 16 13 14 14
54 53 51 49 47 48 48 49 47 43 43 42 38 35 34 34 34 31 29 29 26 20 14 15 16 15 19 14 17 17 16 17 19 17 15 15 17 16
58 59 57 56 51 48 51 51 52 50 42 43 45 43 40 35 30 32 28 25 20 16 13 17 16 19 18 15 17 16 15 14 16 15 13 14 15 17
52 53 56 56 54 54 52 53 56 51 47 43 44 45 44 40 38 37 33 27 22 20 14 15 17 22 20 17 15 15 15 17 16 15 16 14 13 17
52 47 47 47 51 53 54 55 53 52 49 46 44 44 42 37 36 36 34 31 30 29 27 23 25 24 23 20 20 18 13 14 15 16 14 13 13 15
52 53 46 38 46 46 52 55 54 54 52 50 46 45 42 36 33 31 29 30 32 28 35 25 29 25 24 23 23 19 16 15 13 14 13 15 15 18
38 41 49 51 43 44 49 53 58 61 60 56 53 49 41 38 34 29 30 31 33 32 33 25 24 23 18 17 21 18 15 13 14 8 14 18 21 19
37 38 42 46 54 59 49 56 61 67 66 62 57 50 43 44 38 33 33 36 34 28 29 23 19 17 15 12 17 15 14 12 7 10 17 21 17 11
26 34 42 47 49 53 61 68 61 66 66 58 59 56 51 51 41 33 35 43 36 25 24 19 22 20 15 13 11 9 11 8 11 16 19 15 14 18
41 43 46 45 50 54 57 64 70 65 64 59 59 55 53 51 36 33 40 39 31 26 26 24 23 21 17 18 16 11 13 15 18 19 12 13 19 22
44 39 40 44 48 53 60 63 62 60 66 64 65 60 56 32 35 37 38 37 34 31 27 26 24 21 22 21 16 15 15 15 15 12 11 17 19 18
25 28 30 36 43 39 51 57 59 61 66 69 69 66 43 38 38 45 41 39 37 31 29 29 28 25 22 21 22 21 16 13 11 11 13 16 18 17
21 18 20 23 29 38 45 48 53 66 72 74 68 39 39 36 42 43 38 37 34 30 29 26 22 20 22 24 25 21 12 12 12 12 10 12 13 17
16 12 13 14 17 24 18 12 5 10 19 21 23 29 41 43 40 42 39 34 31 30 27 22 22 21 22 22 21 14 13 16 12 11 11 11 14 18

GFSNE_850_spd_033.txt.gz
Wind_Speed
19 21 20 20 18 12 10 13 8 5 15 17 12 13 14 12 11 11 10 10 10 7 6 5 6 7 9 11 13 15 15 14 12 12 12 13 13 15
18 17 20 19 18 15 13 12 14 13 11 7 17 15 18 16 14 12 13 10 7 8 8 7 8 9 10 13 16 17 16 15 15 14 13 14 15 16
23 21 19 20 21 19 18 18 16 15 16 13 10 17 18 18 14 14 15 14 12 9 6 10 11 11 12 13 13 15 16 15 15 14 15 16 15 16
28 27 25 21 23 25 24 24 22 20 18 16 18 17 23 17 14 13 13 15 17 14 14 13 13 13 13 12 12 11 10 10 9 11 14 15 16 20
31 31 30 28 28 28 30 29 27 23 23 21 21 20 19 19 19 17 16 13 11 12 17 19 19 15 15 12 11 13 14 14 14 13 15 17 19 21
33 36 35 35 34 31 31 33 32 30 29 28 27 27 27 24 22 22 20 18 13 15 17 17 18 17 17 12 11 12 16 20 18 16 17 18 20 21
33 36 40 40 40 37 35 34 36 38 36 35 34 32 31 33 30 28 27 23 20 17 17 18 16 17 15 15 14 14 19 21 19 18 20 22 22 22
39 38 40 42 43 42 40 37 35 38 43 42 40 38 34 30 31 31 30 29 28 22 21 21 20 20 18 19 17 15 16 15 16 17 18 21 19 16
43 42 42 43 43 44 45 44 40 37 40 42 46 43 38 33 30 33 33 31 32 25 22 19 22 23 21 21 21 20 17 18 17 14 16 14 10 9
49 47 46 44 44 44 44 46 46 45 43 41 45 45 43 36 32 30 31 30 30 28 25 23 21 23 19 19 20 19 19 17 14 12 12 10 9 9
52 52 52 51 50 46 45 46 46 49 45 44 43 43 43 41 38 33 36 34 33 34 30 23 25 22 22 21 22 21 18 16 14 14 13 13 11 12
51 54 56 57 54 52 50 50 52 52 48 46 47 47 46 45 46 44 39 40 41 37 33 26 25 22 23 25 25 22 17 14 14 12 13 13 15 13
49 53 55 55 53 53 51 53 59 54 54 51 50 49 52 52 53 50 49 49 47 45 36 29 25 27 27 19 26 22 17 15 14 13 15 15 13 12
44 46 49 49 49 47 47 53 55 56 57 58 57 57 57 59 59 56 53 49 44 37 30 27 27 29 30 32 26 23 20 18 16 16 17 14 12 14
35 37 38 42 42 47 45 47 48 56 61 57 60 60 61 59 54 55 58 52 46 40 36 30 30 31 30 32 30 26 22 24 22 21 20 15 15 16
32 34 34 35 38 43 46 50 47 54 61 65 64 61 56 55 56 55 57 59 52 47 40 34 36 38 36 31 27 26 24 25 22 22 19 16 16 17
22 28 35 42 44 46 51 50 49 56 56 63 59 55 53 60 60 56 54 55 55 53 46 43 40 37 31 28 25 23 23 24 20 16 16 14 17 19
32 35 35 35 37 39 42 47 51 52 53 59 58 60 57 58 58 59 58 56 56 53 43 40 40 33 29 27 24 20 20 18 15 16 16 18 20 16
40 42 37 31 29 32 36 43 46 52 58 56 59 55 59 60 64 65 63 62 56 43 39 44 37 38 35 31 21 17 18 17 16 17 19 21 17 11
21 21 22 25 28 31 33 40 45 42 44 55 60 53 59 59 65 63 69 62 63 52 43 43 38 40 37 27 20 19 18 17 23 20 18 14 9 10
12 13 12 12 10 7 20 29 30 36 40 48 58 57 61 71 77 70 56 57 45 43 46 42 39 32 23 18 21 20 18 16 16 16 12 11 10 12
13 14 13 15 18 23 26 27 29 26 38 25 31 27 13 10 7 19 40 29 41 42 33 35 30 29 27 26 24 21 20 16 15 14 13 11 13 15
14 15 15 16 20 22 22 23 18 20 19 20 14 18 14 12 17 10 23 38 36 34 31 31 30 25 23 23 19 17 17 17 19 16 14 14 13 12

GFSNE_850_spd_036.txt.gz
Wind_Speed
19 19 18 18 17 14 13 15 15 13 14 15 17 13 13 14 12 11 8 8 9 8 8 9 8 7 7 7 9 12 14 13 12 12 11 11 12 13
19 20 23 22 22 20 18 15 20 18 17 12 15 20 17 16 16 14 12 12 13 11 11 11 10 10 8 9 11 10 12 13 12 11 10 11 11 12
22 22 22 23 24 24 22 20 19 20 21 19 18 17 18 19 19 19 15 16 17 16 13 13 13 12 11 11 8 10 9 8 10 11 10 10 11 12
27 26 25 24 26 27 27 25 24 23 23 22 20 21 22 21 21 21 19 16 15 15 16 17 15 16 17 15 11 11 9 9 11 13 11 12 14 17
28 31 31 29 30 29 31 31 30 28 27 28 26 23 25 23 25 26 24 22 16 13 16 20 20 19 19 18 14 13 13 13 15 18 15 17 18 19
27 30 32 33 34 33 32 33 34 33 33 33 32 30 29 27 27 30 29 28 24 20 19 19 20 21 21 22 18 17 16 17 19 18 18 18 18 18
30 31 32 33 33 33 34 34 34 36 39 38 39 37 36 34 36 34 34 30 28 25 24 24 23 23 21 21 22 20 19 20 21 19 19 19 20 22
38 37 37 37 37 37 37 36 36 36 39 42 44 45 44 42 39 40 39 37 38 32 32 32 27 25 24 24 23 22 21 22 19 17 18 20 19 17
44 42 42 42 41 42 41 41 41 40 39 40 44 48 49 48 45 44 44 43 42 38 35 37 32 30 24 25 25 25 25 23 19 18 18 17 16 11
46 46 45 44 43 42 41 44 44 45 44 43 45 47 50 47 47 45 44 43 41 40 40 43 39 35 25 25 23 27 26 23 19 17 16 16 12 8
45 46 46 47 46 44 44 45 46 49 47 46 46 46 46 47 48 46 49 46 50 51 45 46 45 39 31 28 25 29 26 24 20 17 16 15 10 8
41 45 48 50 49 48 47 46 51 56 51 51 51 50 50 51 51 52 51 54 54 48 52 46 48 42 36 33 30 31 29 26 22 19 17 14 11 10
38 40 40 40 40 42 44 48 51 47 48 50 53 54 52 51 55 57 57 58 57 60 53 47 50 47 39 27 29 33 32 29 25 22 18 16 14 13
34 37 37 36 37 37 38 40 40 39 45 52 56 59 59 59 56 56 58 63 65 65 55 49 47 51 44 36 31 27 34 32 27 22 20 18 16 15
29 29 28 28 30 35 38 38 40 44 47 51 56 60 61 61 58 60 59 61 64 65 64 53 50 45 49 42 34 36 34 36 29 24 23 22 19 18
26 26 26 28 32 34 37 38 40 43 47 51 54 54 58 61 61 64 63 63 61 65 66 69 63 51 48 41 36 37 39 37 29 26 25 22 21 19
24 24 23 24 27 29 30 32 35 38 42 44 48 51 56 56 59 60 62 66 63 65 63 65 58 54 48 40 35 36 37 33 28 25 28 24 21 19
21 24 27 28 28 28 26 26 26 26 29 32 41 43 52 52 54 56 61 64 64 61 60 62 62 57 48 38 38 36 38 32 29 28 26 21 21 18
23 23 23 22 22 23 23 25 29 27 20 19 25 37 52 52 52 61 55 59 68 69 62 66 70 59 42 43 39 35 33 30 29 28 26 23 19 14
11 10 9 10 11 10 4 8 18 20 22 25 32 40 29 31 39 48 60 56 55 53 53 63 67 63 42 50 39 36 28 25 30 27 25 20 15 13
5 6 7 8 9 11 16 19 21 24 23 28 26 29 21 17 26 32 34 42 46 44 37 26 41 48 38 31 26 25 23 24 22 22 21 19 16 14
6 7 8 10 12 15 16 18 20 20 19 16 18 16 12 14 19 23 26 32 29 33 26 18 19 28 23 21 25 25 22 21 21 21 20 16 16 15
9 9 9 11 13 14 15 17 17 16 17 18 16 14 12 10 9 5 9 18 20 20 16 19 16 20 21 27 25 21 17 15 20 23 22 18 15 13

GFSNE_850_spd_042.txt.gz
Wind_Speed
15 17 16 14 13 12 12 12 13 15 18 12 11 9 9 10 8 10 10 9 10 11 11 12 14 14 14 13 12 12 12 12 13 13 11 10 9 10
16 17 18 17 16 15 15 15 16 17 21 17 15 15 14 13 13 15 15 14 15 15 16 16 17 17 17 17 16 15 13 12 13 11 8 7 8 9
19 19 19 18 19 20 20 21 22 22 25 24 21 18 18 17 18 18 18 19 20 20 20 20 21 21 21 21 19 17 16 15 14 13 11 10 10 12
18 20 21 20 21 21 22 24 25 26 28 30 27 25 24 23 23 23 22 23 25 24 24 24 24 24 24 24 23 21 21 20 19 17 17 15 14 13
21 21 20 21 24 25 25 26 26 27 29 33 35 33 33 30 30 32 30 30 30 29 29 29 29 28 27 28 28 26 25 24 24 23 22 20 18 17
25 25 24 24 24 24 27 29 30 31 32 34 37 39 39 37 37 39 40 38 38 35 35 35 33 33 32 30 30 31 30 28 26 28 26 23 22 21
27 26 26 25 24 24 25 26 28 30 32 36 40 43 43 43 42 42 45 43 45 43 42 42 39 39 38 36 34 30 32 32 33 32 31 26 25 24
33 32 31 30 30 29 30 31 32 34 34 36 41 43 44 44 43 43 44 44 50 41 39 45 41 45 45 40 38 36 30 30 33 34 32 27 26 26
38 37 36 35 34 34 35 36 37 38 39 40 44 47 47 46 45 47 46 47 49 47 44 48 44 46 45 44 40 42 38 34 34 34 32 30 25 26
42 42 42 42 41 40 39 40 40 39 38 37 41 45 44 42 41 42 42 44 48 46 47 52 50 53 49 48 45 43 44 40 38 35 35 34 28 25
41 41 41 41 39 37 38 38 38 39 37 34 34 33 32 32 30 35 44 46 52 50 49 52 54 55 55 56 51 47 44 45 44 43 37 37 31 24
35 36 36 35 33 31 32 32 34 30 27 28 28 28 27 27 26 29 33 40 46 51 47 44 50 49 46 55 54 53 47 47 51 51 43 42 35 29
30 29 29 25 21 20 21 25 28 25 25 28 29 32 34 34 34 31 34 38 42 48 47 46 51 51 56 55 47 42 41 48 53 56 47 47 41 33
27 25 22 19 21 21 22 23 23 21 23 27 32 33 37 38 41 40 40 42 44 48 47 48 55 49 58 56 49 52 55 51 51 61 57 53 41 34
21 20 20 22 22 21 21 22 23 27 28 34 33 31 33 32 32 30 33 38 43 45 45 44 49 55 58 64 59 56 53 56 54 60 65 63 48 45
19 21 21 21 22 23 26 30 29 25 24 26 28 30 31 31 34 34 36 37 40 44 36 35 40 45 52 60 62 61 58 52 48 63 74 65 50 47
21 22 24 25 25 23 23 23 22 25 27 28 27 27 28 30 29 29 35 34 33 40 46 45 45 43 47 53 60 59 60 62 56 58 68 57 48 50
18 19 19 19 18 19 20 24 25 26 25 23 23 22 22 26 28 27 27 31 37 40 39 37 41 47 45 38 46 59 56 53 48 60 68 61 51 47
17 17 16 17 18 21 21 19 17 15 13 14 19 20 20 20 22 26 29 29 32 32 33 35 38 36 37 39 33 30 32 28 35 37 44 46 49 41
13 12 13 15 13 12 11 11 12 14 15 16 16 17 18 20 23 25 25 29 29 30 35 35 31 29 32 23 9 1 5 24 35 44 40 35 31 29
9 10 10 10 10 11 11 13 13 13 13 15 15 15 17 19 19 20 20 20 19 22 25 27 25 18 14 3 10 11 11 20 27 31 36 35 28 30
8 8 9 9 11 11 11 12 12 11 13 14 14 15 15 17 16 15 13 15 15 19 16 16 15 9 13 17 22 22 26 26 24 24 20 15 22 26
6 6 6 8 9 9 10 10 12 12 12 13 13 13 15 15 14 14 12 11 12 12 11 8 7 12 10 15 19 24 26 26 25 21 17 11 18 17

GFSNE_850_spd_045.txt.gz
Wind_Speed
12 12 13 12 11 11 10 10 8 8 10 6 4 5 7 8 10 12 13 12 14 14 14 14 14 14 16 16 16 15 14 13 12 12 11 10 10 8
13 13 13 13 13 14 13 13 13 13 12 11 13 14 12 12 12 14 15 17 18 19 19 19 18 19 19 19 19 19 17 17 15 14 12 10 10 9
15 15 15 14 15 15 16 17 18 19 22 19 21 20 19 17 18 19 19 20 21 21 23 24 24 24 23 23 23 23 22 21 18 17 16 15 13 12
16 17 16 16 16 17 18 19 20 22 24 29 27 28 28 25 25 27 27 27 28 27 24 26 29 29 29 28 27 27 26 26 24 23 21 20 18 16
18 19 17 17 18 18 20 22 23 24 26 30 32 31 34 34 34 34 34 34 35 34 34 32 32 32 34 34 33 31 30 30 30 28 26 24 23 21
22 22 22 22 22 21 22 23 24 27 28 32 35 33 33 34 37 36 36 35 36 35 37 37 36 36 36 37 39 38 36 34 34 33 31 30 27 26
26 25 24 24 23 23 24 25 25 27 27 26 27 27 28 25 30 31 32 36 39 37 40 37 35 35 36 35 40 42 43 41 38 37 36 35 33 30
30 28 27 27 27 27 28 27 28 31 33 34 32 32 40 37 32 32 33 34 37 25 32 35 34 41 41 41 42 39 41 44 43 40 39 37 38 35
34 33 32 32 31 31 31 32 33 33 36 38 43 44 46 41 41 42 36 35 39 30 34 50 38 46 47 44 45 44 42 40 45 47 44 41 39 38
38 38 38 38 38 38 37 38 40 41 41 41 42 43 42 37 31 32 36 38 43 42 35 43 37 38 39 40 45 44 44 39 39 45 51 48 44 41
41 41 41 41 40 39 38 40 40 40 38 37 35 32 29 26 26 30 31 34 42 46 30 32 41 40 41 41 40 46 44 41 38 38 47 55 49 46
38 39 39 38 35 33 33 33 36 35 29 26 29 30 26 25 23 25 29 35 38 43 33 34 42 45 47 42 39 37 43 41 44 38 41 50 55 52
32 31 31 27 23 22 23 24 27 23 26 27 28 28 27 26 27 29 31 31 32 37 39 37 43 46 46 53 50 49 52 49 54 41 42 43 54 61
28 26 26 23 19 18 20 24 25 24 26 26 25 29 33 36 31 26 26 26 31 36 37 33 37 38 43 50 50 50 48 51 50 51 45 45 49 61
26 25 21 19 19 21 23 23 22 23 24 25 30 29 28 27 27 28 31 30 28 28 29 31 30 35 37 46 56 54 54 54 51 50 52 50 54 60
23 21 21 20 21 21 22 22 24 30 26 21 23 25 28 28 30 27 24 24 29 27 28 29 27 31 39 41 40 49 47 50 51 47 43 52 55 59
19 21 23 24 24 26 27 27 22 21 20 22 24 26 26 25 22 22 24 21 19 22 25 25 28 29 31 34 34 36 45 47 40 40 50 52 55 60
21 22 22 21 21 21 19 18 18 19 21 22 22 21 19 20 21 20 19 18 19 24 23 25 32 35 32 33 29 38 36 32 30 30 36 38 42 52
20 21 20 19 18 17 18 17 17 19 18 14 15 17 19 19 18 16 14 14 16 19 20 23 30 32 38 37 29 33 35 35 28 10 18 30 36 38
19 19 17 15 14 14 14 14 14 14 14 15 16 15 16 15 13 13 13 18 20 18 17 22 25 27 29 27 27 30 29 26 16 2 16 18 29 37
15 15 15 15 14 14 15 15 14 14 14 14 13 13 12 13 13 17 17 17 16 15 16 19 19 18 18 17 21 24 25 21 6 13 23 35 39 35
13 14 14 13 14 13 13 12 12 12 12 12 14 12 12 13 15 15 16 17 16 15 14 13 12 8 10 13 13 17 23 19 20 23 23 25 29 25
13 12 13 12 11 11 12 11 12 12 14 14 14 15 15 17 18 19 17 16 18 14 10 7 5 6 7 8 9 12 14 17 19 22 20 21 20 14

GFSNE_850_spd_048.txt.gz
Wind_Speed
9 9 9 8 8 6 6 6 5 5 4 5 3 6 6 8 10 12 15 16 15 17 18 18 17 17 17 17 18 19 19 19 18 16 15 11 10 9
9 11 10 9 10 8 8 8 8 9 10 7 8 10 12 11 13 16 17 18 20 19 21 23 23 23 23 22 22 22 22 23 23 21 18 15 13 11
13 13 13 13 11 10 10 11 12 12 14 14 13 14 22 19 19 21 23 24 23 25 22 23 25 27 28 28 28 27 26 26 26 26 25 22 19 17
15 15 15 13 15 15 14 15 15 16 16 21 18 19 20 22 27 26 26 23 23 25 31 29 28 29 31 31 33 34 33 32 31 30 30 28 25 22
17 18 17 16 17 15 15 15 15 16 16 18 21 19 20 21 24 25 26 27 26 24 25 27 27 28 30 33 36 37 38 39 37 35 33 34 31 28
20 19 19 19 19 18 17 18 17 18 19 22 22 22 21 21 21 23 22 21 24 23 25 27 31 33 32 31 35 38 40 41 43 42 39 37 37 34
22 22 23 23 24 23 19 18 18 19 20 21 23 22 22 22 22 25 28 28 28 27 29 28 29 28 29 35 36 33 33 37 42 46 46 43 41 40
25 25 25 27 26 26 26 25 26 28 29 27 26 27 29 28 26 30 32 33 38 24 25 30 30 33 33 30 31 36 40 37 33 35 44 50 48 45
27 26 25 23 25 28 29 30 31 31 32 34 38 37 37 34 32 33 33 34 32 29 32 36 28 32 28 28 31 34 40 41 39 37 34 39 50 52
33 31 33 33 31 28 25 26 28 29 31 34 39 39 35 29 27 28 31 35 34 33 29 36 28 34 31 34 35 36 39 40 42 39 35 33 39 50
38 39 39 39 38 37 37 39 39 37 30 32 35 33 30 27 24 27 29 32 39 31 24 31 33 34 36 37 34 32 34 36 39 41 39 34 31 38
37 39 41 42 41 40 38 37 38 34 26 25 26 26 24 24 21 25 27 29 32 39 25 33 38 37 40 39 31 33 34 34 38 43 43 43 40 39
29 28 27 30 32 29 30 31 32 26 24 24 25 23 20 23 26 27 31 32 29 33 33 28 37 34 31 40 38 37 34 36 38 37 40 38 42 36
31 25 24 26 28 23 23 26 24 21 26 28 30 31 29 28 29 29 26 24 27 30 31 27 26 27 32 37 38 38 35 35 33 38 39 35 44 36
32 24 26 28 28 24 24 23 23 25 26 29 28 27 28 27 26 23 19 17 18 17 17 22 21 22 24 29 33 35 37 35 28 34 41 34 34 45
32 33 31 30 28 25 24 24 24 24 25 26 29 25 24 21 12 13 14 12 14 13 13 16 21 22 24 26 27 27 37 34 37 34 33 27 31 31
27 26 25 26 27 26 26 26 26 27 29 27 17 16 12 13 12 11 10 11 12 14 15 13 17 20 25 27 23 33 40 36 33 37 33 24 24 32
22 25 23 23 24 25 25 25 21 18 17 15 11 11 11 10 10 9 10 10 11 12 14 12 14 20 22 24 26 34 34 36 35 38 33 27 18 18
20 20 20 21 21 20 19 17 14 12 16 11 9 9 9 9 11 9 10 10 12 12 11 11 12 15 22 18 17 30 32 33 31 29 25 14 2 6
20 18 18 17 16 13 12 8 6 10 13 15 13 8 9 9 10 10 10 12 12 11 10 10 10 11 14 15 18 23 24 26 25 20 17 14 12 9
13 15 15 16 16 17 17 17 17 16 15 14 14 9 11 12 9 11 12 16 16 10 12 10 10 11 9 8 12 17 16 19 18 17 15 19 26 32
15 14 13 14 15 15 15 16 15 14 14 14 13 13 12 12 13 13 14 14 17 16 12 11 9 6 5 7 9 10 8 12 16 18 21 23 21 21
17 14 13 12 12 12 12 13 11 11 12 13 13 12 14 15 15 17 18 17 18 17 12 10 9 6 4 3 1 1 2 4 7 9 9 12 12 13